N4ABQ Weather Reports


time (UTC)temp
C
wind
direction
speed
KPH
gust
KPH
rain 1hr
cm
rain 24hr
cm
rain mn
cm
humidity
%
barometer
mb
20260510073009 22 150 1.6 3.2 0.00 0.66 0.00 93 1011.4
20260510072508 22 150 1.6 1.6 0.00 0.66 0.00 93 1011.7
20260510071009 22 150 0.0 1.6 0.00 0.66 0.00 93 1011.7
20260510070509 22 150 0.0 1.6 0.00 0.66 0.00 93 1011.7
20260510070009 22 150 0.0 1.6 0.00 0.66 0.00 93 1011.6
20260510065509 22 150 0.0 1.6 0.00 0.66 0.00 93 1011.6
20260510065009 22 150 0.0 0.0 0.00 0.66 0.00 93 1011.6
20260510064508 22 150 0.0 0.0 0.00 0.66 0.00 93 1011.7
20260510064009 21 150 0.0 0.0 0.00 0.66 0.00 93 1011.7
20260510063509 21 150 0.0 1.6 0.00 0.66 0.00 93 1011.7
20260510062509 21 150 0.0 0.0 0.00 0.66 0.00 92 1011.8
20260510062009 21 150 0.0 0.0 0.00 0.66 0.00 92 1011.8
20260510061508 21 150 0.0 0.0 0.00 0.66 0.00 92 1011.8
20260510061009 21 150 0.0 0.0 0.00 0.66 0.00 92 1011.9
20260510060509 21 150 0.0 0.0 0.00 0.66 0.00 92 1012.1
20260510060009 21 150 0.0 0.0 0.00 0.66 0.00 92 1012.3
20260510055508 21 150 0.0 0.0 0.00 0.66 0.00 92 1012.3
20260510055008 21 150 0.0 0.0 0.00 0.66 0.00 92 1012.3
20260510054008 21 150 0.0 0.0 0.00 0.66 0.00 92 1012.4
20260510053509 21 150 0.0 0.0 0.00 0.66 0.00 92 1012.4
20260510053009 21 150 0.0 0.0 0.00 0.66 0.00 92 1012.4
20260510052009 21 150 0.0 0.0 0.00 0.66 0.00 92 1012.6
20260510051009 21 150 0.0 0.0 0.00 0.69 0.00 92 1012.8
20260510050508 21 150 0.0 0.0 0.00 0.76 0.00 92 1012.7
20260510050008 21 150 0.0 0.0 0.00 0.86 0.00 92 1012.8
20260510045509 21 150 0.0 1.6 0.00 0.89 0.00 92 1012.9
20260510045008 21 150 0.0 0.0 0.00 0.91 0.00 92 1012.9
20260510044509 22 150 0.0 0.0 0.00 0.94 0.00 92 1012.8
20260510044009 22 150 0.0 0.0 0.00 0.97 0.00 92 1012.8
20260510043509 22 150 0.0 1.6 0.00 1.07 0.00 92 1012.8
20260510043008 22 150 0.0 3.2 0.00 1.27 0.00 92 1012.8
20260510042509 22 150 0.0 1.6 0.00 1.27 0.00 92 1012.9
20260510042009 22 150 0.0 1.6 0.00 1.27 0.00 92 1012.9
20260510041509 22 150 0.0 3.2 0.00 1.27 0.00 92 1012.9
20260510041009 22 150 1.6 3.2 0.00 1.27 0.00 92 1012.9
20260510040509 22 150 3.2 4.8 0.00 1.27 0.00 92 1012.9
20260510040008 22 150 0.0 1.6 0.00 1.27 0.00 92 1012.9
20260510035508 22 150 0.0 4.8 0.00 1.27 1.27 92 1013.0
20260510035009 22 150 1.6 4.8 0.00 1.27 1.27 92 1012.9
20260510034509 22 150 0.0 0.0 0.00 1.27 1.27 92 1013.1
20260510034008 22 150 0.0 0.0 0.00 1.27 1.27 92 1013.1
20260510033509 22 150 1.6 3.2 0.00 1.27 1.27 92 1013.1
20260510033009 22 150 1.6 3.2 0.00 1.30 1.27 92 1013.1
20260510032509 22 150 1.6 4.8 0.00 1.30 1.27 92 1013.1
20260510032008 22 150 1.6 4.8 0.00 1.32 1.27 92 1012.9
20260510031508 22 150 3.2 4.8 0.00 1.37 1.27 92 1012.9
20260510031008 22 150 3.2 4.8 0.00 1.42 1.27 92 1012.8
20260510030509 22 150 3.2 4.8 0.00 1.47 1.27 92 1012.7
20260510030008 22 150 1.6 4.8 0.00 1.47 1.27 92 1012.8
20260510025509 22 150 3.2 4.8 0.00 1.47 1.27 92 1012.6
20260510025008 22 88 0.0 0.0 0.00 1.47 1.27 91 1012.3
20260510024509 22 88 0.0 0.0 0.00 1.47 1.27 92 1012.3
20260510024008 22 88 0.0 1.6 0.00 1.47 1.27 92 1012.3
20260510023509 22 88 0.0 1.6 0.00 1.50 1.27 92 1012.4
20260510023008 22 88 0.0 1.6 0.00 1.50 1.27 92 1012.3
20260510022509 22 88 0.0 1.6 0.00 1.50 1.27 92 1012.4
20260510021509 22 88 0.0 1.6 0.00 1.52 1.27 91 1012.1
20260510021008 22 88 1.6 4.8 0.00 1.52 1.27 92 1011.9
20260510020508 22 88 3.2 4.8 0.00 1.52 1.27 92 1011.9
20260510020009 22 88 1.6 3.2 0.00 1.52 1.27 91 1011.8
20260510015508 22 88 0.0 1.6 0.00 1.52 1.27 91 1012.0
20260510015009 22 88 0.0 0.0 0.00 1.52 1.27 91 1011.9
20260510014009 22 88 0.0 0.0 0.00 1.52 1.27 91 1011.8
20260510013509 22 88 0.0 0.0 0.00 1.52 1.27 91 1011.7
20260510013009 22 88 0.0 1.6 0.00 1.52 1.27 91 1011.6
20260510012509 22 88 0.0 0.0 0.00 1.52 1.27 92 1011.4
20260510012009 22 88 0.0 0.0 0.00 1.52 1.27 91 1011.5
20260510011508 22 88 0.0 1.6 0.00 1.52 1.27 91 1011.5
20260510011008 22 88 1.6 4.8 0.00 1.52 1.27 91 1011.4
20260510010508 22 88 0.0 0.0 0.03 1.52 1.27 91 1011.3
20260510010009 22 88 0.0 0.0 0.03 1.52 1.27 91 1011.3
20260510005009 22 88 0.0 1.6 0.03 1.52 1.27 91 1011.5
20260510004509 22 88 1.6 3.2 0.03 1.52 1.27 91 1011.4
20260510004009 22 88 1.6 3.2 0.03 1.52 1.27 91 1011.4
20260510003508 22 88 0.0 0.0 0.03 1.52 1.27 91 1011.3
20260510002508 22 88 0.0 0.0 0.03 1.52 1.27 91 1011.7
20260510002008 22 88 0.0 1.6 0.03 1.52 1.27 91 1011.8
20260510001508 22 90 0.0 1.6 0.03 1.52 1.27 91 1011.8
20260510000509 22 90 1.6 3.2 0.00 1.50 1.24 91 1011.8
20260510000008 22 90 0.0 3.2 0.00 1.50 1.24 91 1011.8
20260509235009 23 90 0.0 3.2 0.00 1.50 1.24 91 1011.8
20260509234508 23 78 1.6 3.2 0.00 1.50 1.24 91 1011.7
20260509234009 23 78 1.6 3.2 0.00 1.50 1.24 91 1011.7
20260509233509 23 78 0.0 1.6 0.00 1.50 1.24 91 1011.7
20260509233008 22 78 1.6 3.2 0.00 1.50 1.24 91 1011.6
20260509232509 23 78 0.0 0.0 0.00 1.50 1.24 91 1011.5
20260509231509 23 78 0.0 1.6 0.00 1.50 1.24 91 1011.5
20260509231009 23 78 0.0 0.0 0.00 1.50 1.24 91 1011.5
20260509230509 22 78 0.0 0.0 0.00 1.50 1.24 91 1011.6
20260509225509 22 78 0.0 0.0 0.00 1.50 1.24 91 1011.5
20260509225009 22 78 0.0 0.0 0.00 1.50 1.24 91 1011.5
20260509224009 22 78 0.0 1.6 0.00 1.50 1.24 91 1011.5
20260509223008 22 78 0.0 1.6 0.00 1.50 1.24 91 1011.5
20260509222509 22 78 0.0 1.6 0.00 1.50 1.24 91 1011.3
20260509221508 22 44 1.6 4.8 0.00 1.50 1.24 91 1011.4
20260509221009 22 44 0.0 4.8 0.00 1.50 1.24 90 1011.5
20260509220509 22 44 3.2 4.8 0.00 1.50 1.24 90 1011.4
20260509220008 22 44 3.2 4.8 0.00 1.50 1.24 90 1011.2
20260509215009 22 56 3.2 4.8 0.00 1.50 1.24 90 1011.2
20260509214509 22 56 0.0 1.6 0.00 1.50 1.24 91 1011.4
20260509214009 22 56 3.2 4.8 0.00 1.50 1.24 90 1011.3
20260509213509 22 55 1.6 8.0 0.00 1.50 1.24 90 1011.3
20260509213008 22 15 3.2 4.8 0.03 1.50 1.24 90 1011.3
20260509212509 22 15 3.2 8.0 0.08 1.50 1.24 90 1011.2
20260509212009 22 9 4.8 11.3 0.28 1.50 1.24 90 1011.2
20260509211008 22 9 3.2 4.8 0.30 1.50 1.24 90 1011.3
20260509210509 22 0 1.6 4.8 0.30 1.50 1.24 90 1011.3
20260509205509 22 356 8.0 16.1 0.33 1.50 1.24 89 1011.4
20260509204509 22 10 9.7 16.1 0.41 1.50 1.24 88 1011.6
20260509204008 22 9 4.8 11.3 0.43 1.50 1.24 88 1011.7
20260509203509 22 213 0.0 1.6 0.46 1.50 1.24 88 1011.7
20260509203008 22 213 1.6 4.8 0.46 1.47 1.22 88 1011.7
20260509202509 23 235 3.2 9.7 0.43 1.42 1.17 87 1011.3
20260509202009 23 16 11.3 20.9 0.25 1.22 0.97 87 1011.3
20260509201009 24 327 4.8 12.9 0.28 1.19 0.94 88 1011.2
20260509200509 24 98 0.0 0.0 0.30 1.19 0.94 87 1011.0
20260509200008 24 98 0.0 0.0 0.30 1.19 0.94 87 1011.1
20260509195508 25 98 0.0 0.0 0.28 1.17 0.91 87 1011.2
20260509195008 25 98 0.0 0.0 0.25 1.12 0.86 86 1011.4
20260509194509 25 98 0.0 3.2 0.23 1.09 0.84 86 1011.3
20260509194008 25 98 0.0 1.6 0.20 1.07 0.81 85 1011.2
20260509193509 25 99 0.0 0.0 0.18 1.04 0.79 85 1011.2
20260509193008 25 110 0.0 0.0 0.15 1.02 0.76 84 1010.9
20260509192508 25 110 0.0 0.0 0.13 0.99 0.74 83 1011.1
20260509192009 25 110 0.0 0.0 0.10 0.97 0.71 83 1011.2
20260509191508 26 110 0.0 0.0 0.05 0.91 0.66 82 1011.2
20260509191009 26 110 0.0 1.6 0.05 0.91 0.66 81 1011.3
20260509190508 26 110 0.0 1.6 0.03 0.89 0.64 80 1011.1
20260509184508 26 217 0.0 4.8 0.00 0.86 0.61 78 1011.1
20260509184008 27 217 4.8 9.7 0.00 0.86 0.61 78 1011.1
20260509182509 27 236 0.0 0.0 0.00 0.86 0.61 77 1011.1
20260509182008 27 321 1.6 8.0 0.00 0.86 0.61 77 1011.1
20260509181508 27 221 4.8 11.3 0.00 0.86 0.61 77 1011.2
20260509181008 27 182 3.2 16.1 0.00 0.86 0.61 77 1011.2
20260509180509 27 172 4.8 12.9 0.00 0.86 0.61 78 1011.2
20260509180009 27 226 4.8 12.9 0.00 0.86 0.61 78 1011.3
20260509175508 27 229 4.8 9.7 0.00 0.86 0.61 77 1011.3
20260509175008 27 172 6.4 11.3 0.00 0.86 0.61 79 1011.5
20260509174508 26 200 1.6 4.8 0.00 0.86 0.61 80 1011.5
20260509173008 26 233 4.8 4.8 0.00 0.86 0.61 80 1011.6
20260509172009 26 240 3.2 4.8 0.00 0.86 0.61 79 1011.7
20260509171509 26 235 3.2 8.0 0.00 0.86 0.61 79 1011.7
20260509171009 26 148 0.0 3.2 0.00 0.86 0.61 79 1011.8
20260509170509 26 148 3.2 4.8 0.00 0.86 0.61 79 1011.8
20260509170009 26 147 1.6 4.8 0.00 0.86 0.61 79 1011.8
20260509165509 26 147 1.6 8.0 0.00 0.86 0.61 80 1011.8
20260509165009 26 178 1.6 9.7 0.00 0.86 0.61 80 1011.9
20260509164508 26 223 1.6 3.2 0.00 0.86 0.61 79 1011.9
20260509164008 26 212 4.8 8.0 0.00 0.86 0.61 79 1012.0
20260509163509 26 69 1.6 4.8 0.00 0.86 0.61 80 1012.0
20260509163008 26 147 1.6 8.0 0.00 0.86 0.61 80 1012.0
20260509162509 25 178 4.8 9.7 0.00 0.86 0.61 81 1011.9
20260509162008 25 165 4.8 12.9 0.00 0.86 0.61 81 1012.0
20260509161509 25 175 4.8 8.0 0.00 0.86 0.61 81 1012.1
20260509161008 25 181 1.6 4.8 0.00 0.86 0.61 81 1011.9
20260509160509 25 175 4.8 9.7 0.00 0.86 0.61 82 1011.7
20260509160008 25 132 1.6 3.2 0.00 0.86 0.61 81 1011.6
20260509155508 25 132 1.6 3.2 0.00 0.86 0.61 82 1011.6
20260509154008 24 132 1.6 3.2 0.00 0.86 0.61 82 1011.7
20260509153508 24 132 1.6 3.2 0.00 0.86 0.61 82 1012.0
20260509153009 24 132 0.0 4.8 0.00 0.86 0.61 82 1012.2
20260509152508 24 132 3.2 4.8 0.00 0.86 0.61 82 1012.3
20260509152008 24 132 1.6 4.8 0.00 0.86 0.61 82 1012.4
20260509151509 24 132 3.2 4.8 0.00 0.86 0.61 83 1012.7
20260509151009 24 138 3.2 4.8 0.00 0.86 0.61 83 1012.6
20260509150508 24 138 1.6 4.8 0.00 0.86 0.61 83 1012.6
20260509150008 24 138 3.2 4.8 0.00 0.86 0.61 84 1012.7
20260509145509 23 138 3.2 4.8 0.00 0.86 0.61 84 1012.7
20260509145009 23 138 1.6 3.2 0.00 0.86 0.61 85 1012.6
20260509143009 23 138 1.6 4.8 0.00 0.86 0.61 86 1012.4
20260509142508 23 138 0.0 3.2 0.00 0.86 0.61 86 1012.4
20260509142008 23 138 0.0 4.8 0.00 0.86 0.61 87 1012.4
20260509141509 23 138 1.6 4.8 0.00 0.86 0.61 88 1012.3
20260509141008 23 138 3.2 4.8 0.00 0.86 0.61 88 1012.3
20260509140508 22 31 1.6 3.2 0.00 0.86 0.61 89 1012.3
20260509140009 22 31 3.2 4.8 0.00 0.86 0.61 90 1012.2
20260509135508 22 19 3.2 4.8 0.00 0.86 0.61 90 1012.3
20260509134509 22 355 1.6 4.8 0.00 0.86 0.61 90 1012.3
20260509133508 22 355 1.6 4.8 0.00 0.86 0.61 91 1012.2
20260509133009 21 355 1.6 3.2 0.00 0.86 0.61 91 1012.0
20260509132508 21 355 1.6 3.2 0.00 0.86 0.61 91 1011.8
20260509132009 21 355 1.6 3.2 0.00 0.86 0.61 91 1011.8
20260509131509 21 355 3.2 4.8 0.00 0.86 0.61 91 1011.8
20260509131008 21 355 1.6 3.2 0.00 0.86 0.61 91 1011.8
20260509130508 21 355 3.2 4.8 0.00 0.86 0.61 92 1011.9
20260509130009 21 355 1.6 3.2 0.00 0.86 0.61 92 1011.7
20260509125508 21 355 1.6 3.2 0.00 0.86 0.61 92 1011.6
20260509125008 21 355 0.0 1.6 0.00 0.86 0.61 92 1011.5
20260509124508 21 355 1.6 4.8 0.00 0.86 0.61 92 1011.4
20260509124009 21 355 1.6 4.8 0.00 0.86 0.61 92 1011.4
20260509123509 21 355 1.6 4.8 0.00 0.86 0.61 92 1011.5
20260509123008 21 355 1.6 4.8 0.00 0.86 0.61 92 1011.6
20260509122509 21 355 1.6 4.8 0.00 0.86 0.61 92 1011.6
20260509121508 20 355 1.6 4.8 0.00 0.86 0.61 92 1011.6
20260509121009 20 355 0.0 1.6 0.00 0.86 0.61 92 1011.6
20260509120508 20 355 0.0 1.6 0.00 0.86 0.61 92 1011.6
20260509120008 20 355 1.6 3.2 0.00 0.86 0.61 92 1011.7
20260509115509 20 351 0.0 1.6 0.00 0.86 0.61 92 1011.6
20260509115008 20 351 0.0 1.6 0.00 0.86 0.61 92 1011.4
20260509114508 20 351 3.2 4.8 0.00 0.86 0.61 92 1011.4
20260509114008 20 351 3.2 4.8 0.00 0.86 0.61 92 1011.3
20260509113509 20 351 1.6 4.8 0.00 0.86 0.61 92 1011.3
20260509113008 20 351 1.6 4.8 0.00 0.86 0.61 92 1011.0
20260509111509 20 351 0.0 3.2 0.00 0.86 0.61 91 1010.9
20260509111008 20 351 1.6 4.8 0.00 0.86 0.61 92 1010.8
20260509110508 20 36 1.6 3.2 0.00 0.86 0.61 91 1010.6
20260509105508 20 64 1.6 4.8 0.00 0.86 0.61 92 1010.1
20260509105008 20 163 1.6 4.8 0.00 0.86 0.61 92 1010.1
20260509104509 20 163 1.6 3.2 0.00 0.86 0.61 92 1009.9
20260509104008 20 163 0.0 1.6 0.00 0.86 0.61 91 1009.7
20260509103508 20 163 0.0 1.6 0.00 0.86 0.61 91 1009.8
20260509103008 20 163 0.0 1.6 0.00 0.86 0.61 92 1009.9
20260509102509 20 163 0.0 1.6 0.00 0.86 0.61 92 1009.9
20260509102008 20 163 0.0 1.6 0.00 0.86 0.61 92 1009.7
20260509101508 20 163 3.2 9.7 0.00 0.86 0.61 92 1009.3
20260509101009 20 182 3.2 11.3 0.00 0.86 0.61 92 1009.3
20260509100509 20 168 6.4 11.3 0.00 0.86 0.61 92 1009.4
20260509100008 20 167 3.2 8.0 0.00 0.86 0.61 92 1009.5
20260509095509 20 241 0.0 3.2 0.00 0.86 0.61 92 1009.6
20260509095008 20 241 1.6 3.2 0.00 0.86 0.61 92 1009.6
20260509094508 20 234 3.2 8.0 0.00 0.86 0.61 92 1009.4
20260509094009 20 178 8.0 20.9 0.00 0.86 0.61 92 1009.2
20260509093509 20 166 14.5 24.1 0.00 0.86 0.61 92 1009.2
20260509093008 20 164 11.3 22.5 0.00 0.86 0.61 92 1009.4
20260509092508 20 157 9.7 19.3 0.00 0.86 0.61 92 1009.6
20260509092008 20 157 9.7 19.3 0.00 0.86 0.61 92 1009.8
20260509091509 20 158 8.0 12.9 0.00 0.86 0.61 92 1010.4
20260509091008 20 169 1.6 3.2 0.00 0.86 0.61 92 1010.6
20260509090009 20 169 0.0 1.6 0.00 0.86 0.61 92 1010.7
20260509085508 20 169 1.6 3.2 0.00 0.86 0.61 92 1010.7
20260509085008 20 169 1.6 3.2 0.00 0.86 0.61 92 1010.6
20260509084508 20 169 0.0 4.8 0.00 0.86 0.61 92 1010.6
20260509084008 20 169 1.6 4.8 0.00 0.86 0.61 92 1010.5
20260509083509 20 169 1.6 4.8 0.00 0.86 0.61 92 1010.4
20260509082508 20 169 4.8 9.7 0.00 0.86 0.61 92 1010.4
20260509082008 20 167 4.8 9.7 0.00 0.86 0.61 92 1010.5
20260509081508 20 168 8.0 14.5 0.00 0.86 0.61 92 1010.3
20260509081009 20 169 6.4 9.7 0.00 0.86 0.61 92 1010.4
20260509075508 20 160 4.8 9.7 0.00 0.86 0.61 91 1010.4
20260509075009 20 153 4.8 11.3 0.00 0.86 0.61 91 1010.6
20260509074009 20 165 3.2 8.0 0.00 0.86 0.61 91 1010.7
20260509073508 20 165 3.2 4.8 0.00 0.86 0.61 91 1010.8